User: anonymous   Login
Location: Unspecified
(0.0000°N, 0.0000°E)
Time: 01:49:30
(UTC+00:00)
Language:

STARLINK-11694 [DTC] - Orbit

View from above orbital plane
View from above orbital plane
View from above satellite
View from above satellite

Ground track
Ground track

The orbit is defined by the following mean orbital elements,

1 64243U          26145.58335647 +.00000000 +00000-0 -26956-3 0 00003
2 64243  42.9993 106.0828 0001744 245.3157  88.2941 15.69981269    03
Epoch (UTC): 25 May 2026 14:00:01
Eccentricity: 0.0001744
inclination: 42.9993°
perigee height: 358 km
apogee height: 360 km
right ascension of ascending node: 106.0828°
argument of perigee: 245.3157°
revolutions per day: 15.69981269
mean anomaly at epoch: 88.2941°

The dashed part of the orbit path shows where the satellite is in the earth's shadow,  

DLR